STARLINK-1502, 45764

Orbit data source: Space-Track

STARLINK-1502, 45764 is a payload satellite owned by SpaceX/Seattle (US) in LEO that was launched on Sat, 13 Jun 2020 UTC via an FALCON 9 launch vehicle from the Air Force Eastern Test Range (AFETR). Payload-class satellites include a variety of spacecraft equipped with specific instruments for various scientific and technological missions. These include communications satellites like Starlink; space stations such as the ISS; scientific satellites like the Hubble; Earth observation satellites from companies like Planet Labs, Umbra, and HawkEye 360; GPS; miniature CubeSats for education and research; and military/defense satellites.

Loading next visibility...
Identifier
45764, 2020-038AL
Orbit
LEO
Country
Flag of USUS
Related business
Manufacturer
SpaceX/Seattle
Mission
Partially operational Commercial Communications
Bus & Motor
STARLINK, Unknown motor
Mass
260 kg wet, ~248 kg dry
Launch date (UTC)
2020-06-13 (6 years ago)
Launch vehicle
FALCON 9
Launch site
Air Force Eastern Test Range (AFETR)
Object type
Payload
Rocket body
Debris
Shape & HBR
Box + 1 Pan, 10.1 m
Radar Cross Section
13.562 m², Large (>1 m²)

Expand to show TLE details & history
Last TLE update: 21 hours ago

TLE from 21 hours ago
0 STARLINK-1502
1 45764U 20038AL  26202.36056482  .00051085  00000-0  44335-3 0  9996
2 45764  53.0423 276.6997 0003604  19.1962 340.9189 15.68611716337472
Epoch: 2026-07-21T08:39Z
TLE epoch observation values (Epoch: 2026-07-21T08:39:12.800Z)
Latitude
-0.00002°
Longitude
-152.23502°
Altitude
361.477 km
Speed
7.695 km/s
True Right ascension
18h 26m 47s
True Declination
0° 00' 00"
Sunlit
Object was in full shadow at epoch
Visualization orbit readout
Latitude
Unknown
Longitude
Unknown
Altitude
Unknown
Speed
Unknown
Apparent Right ascension
Unknown
Apparent Declination
Unknown
Sunlit
N/A
Visualization observer readout
Local Sidereal Time
18:08:51
Azimuth
Unknown
Elevation
Unknown
Doppler factor
Unknown
Orbital elements
Apogee altitude
365.581 km
Perigee altitude
360.722 km
Semi-major axis
6,741.288 km
Eccentricity
0.00036
Inclination
53.0423°
RAAN
276.6997°
Arg. of periapsis
19.1962°
True anomaly
340.90539°
Mean anomaly
340.9189°
Eccentric anomaly
340.91215°
Mean motion
3.92129 °/min
Orbital period
91.81 mins
BSTAR
0.00044335
Loading maneuver chart data...
Computing Atmospheric mass density...

Documentation

Showing up to 5 results
|